Location: Краснодар
(45.0393°N, 38.9872°E)
Time: 14:42:00
(UTC+03:00)

ISS - Visible Passes

Search period start: 30 November 2021 00:00
Search period end: 10 December 2021 00:00
Orbit: 417 x 423 km, 51.6° (Epoch: 30 November)

Date Brightness Start Highest point End Pass type
(mag) Time Alt. Az. Time Alt. Az. Time Alt. Az.
30 Nov -2.5 18:23:34 10° NW 18:26:34 28° N 18:26:40 28° NNE visible
01 Dec -2.4 17:36:18 10° NW 17:39:13 26° N 17:41:26 14° NE visible
01 Dec -1.4 19:13:12 10° NW 19:14:26 20° NW 19:14:26 20° NW visible
02 Dec -3.1 18:26:02 10° NW 18:29:15 40° NNE 18:29:15 40° NNE visible
03 Dec -2.8 17:38:50 10° NW 17:41:57 32° NNE 17:44:10 16° ENE visible
03 Dec -1.5 19:15:37 10° WNW 19:17:09 24° WNW 19:17:09 24° WNW visible
04 Dec -3.9 18:28:23 10° WNW 18:31:48 78° NNE 18:32:11 65° E visible
05 Dec -3.6 17:41:11 10° NW 17:44:32 54° NNE 17:47:23 13° E visible
05 Dec -1.4 19:18:18 10° W 19:20:24 24° WSW 19:20:24 24° WSW visible
06 Dec -2.6 18:30:51 10° WNW 18:34:05 42° SW 18:35:50 22° SSE visible
07 Dec -3.4 17:43:31 10° WNW 17:46:54 68° SSW 17:50:16 10° SE visible
07 Dec -0.4 19:22:49 10° SW 19:23:09 10° SW 19:23:28 10° SW visible
08 Dec -0.8 18:33:53 10° W 18:36:07 17° SW 18:38:20 10° S visible
09 Dec -1.4 17:46:08 10° W 17:49:01 26° SW 17:51:54 10° SSE visible
